Location: Mainz-Finthen
(49.9906°N, 8.1713°E)
Time: 03:24:20
(UTC+00:00)

N. Korean satellite - Pass Details

Date: 27 September 2021
Orbit: 450 x 495 km, 97.3° (Epoch: 15 October)

Event Time Altitude Azimuth Distance (km) Brightness Sun altitude
Rises 04:07:25 0° 23° (NNE) 2,531 10.7 -12.6°
Reaches altitude 10° 04:09:44 10° 37° (NE) 1,656 10.0 -12.3°
Maximum altitude 04:12:45 25° 95° (E) 996 9.1 -11.8°
Drops below altitude 10° 04:15:47 10° 153° (SSE) 1,665 9.5 -11.3°
Sets 04:18:06 0° 166° (SSE) 2,548 10.3 -10.9°
